[[{"header":{"parameterUnit":"m.s-1","parameterCategory":1,"la1":30.2991,"la2":30.254,"lo1":-89.0895,"lo2":-89.0444,"dy":0.0017,"dx":0.0017,"nx":28,"ny":28,"refTime":"2023-10-17T03:00:00:Z","depth":0,"parameterNumber":2,"parameterNumberName":"U-component_of_WINDS"},"data":[0,0,0,0,0,0,0,0,0,0,0,0,0,0,0,0,0,0,0,0,0,0,0,0,0,0,0,0,0,0,0,0,0,0,0,0,0,0,0,0,0,0,0,0,0,0,0,0,0,0,0,0,0,0,0,0,0,0,2.0139,2.0139,0,2.0207,2.0208,2.0209,2.0191,2.019,2.0189,2.0187,2.0258,2.0261,2.0264,0,0,0,0,0,0,0,0,0,0,0,0,0,1.9991,1.9994,2.0138,2.0139,2.014,2.0207,2.0208,2.0209,2.0192,2.019,2.0188,2.0187,2.0257,2.026,2.0264,0,0,0,0,0,0,0,0,0,0,0,0,0,2.0057,1.9995,2.0138,2.014,2.014,2.0207,2.0208,2.0209,2.0192,2.019,2.0188,2.0186,2.0255,2.026,2.0264,2.0334,0,0,2.0279,2.0281,0,0,0,0,0,0,0,0,2.0054,2.0063,2.0139,2.014,2.0141,2.0189,2.0182,2.0251,2.0193,2.0172,2.0187,2.0185,2.0236,2.0242,2.026,2.0337,2.034,2.0279,2.0282,2.0284,2.0285,0,0,0,0,0,0,0,2.0049,2.006,2.0166,2.014,2.0141,2.0137,2.0144,2.0195,2.0215,2.0174,2.0173,2.0181,2.0236,2.0255,2.0261,2.0341,2.0279,2.0283,2.0286,2.0288,2.0478,2.048,0,0,0,0,0,0,2.0044,2.0056,2.0163,2.0168,2.0091,2.0141,2.0149,2.0175,2.0214,2.0218,2.0183,2.018,2.0248,2.0256,2.0264,2.0346,2.0284,2.0288,2.0291,2.0476,2.0479,2.0481,0,0,0,0,0,0,2.0041,2.0053,2.0161,2.0112,2.0125,2.0146,2.0175,2.0178,2.0196,2.0221,2.0224,2.0199,2.0247,2.0257,2.0316,2.0348,2.0291,2.0295,2.0473,2.0477,2.048,2.0513,0,0,0,0,0,0,2.0036,2.0052,2.0079,2.0112,2.0128,2.0212,2.0178,2.0181,2.0205,2.0202,2.0237,2.024,2.0246,2.0309,2.0321,2.0354,2.0298,2.047,2.0475,2.0479,2.0509,2.0517,2.0523,0,0,0,0,0,2.0031,2.0086,2.008,2.0094,2.0161,2.0214,2.0223,2.0229,2.0207,2.0234,2.025,2.0239,2.0344,2.0316,2.0329,2.0363,2.0468,2.0474,2.0478,2.0505,2.0515,2.0523,0,0,0,0,0,0,2.0055,2.009,2.0085,2.0152,2.018,2.0211,2.0245,2.0239,2.0274,2.027,2.0275,2.0283,2.0344,2.036,2.0328,2.0432,2.0403,2.0411,2.0419,2.0428,2.0436,2.0429,2.0302,0,0,0,0,0,2.0068,2.0109,2.0137,2.0193,2.0208,2.0224,2.0247,2.0249,2.0279,2.0291,2.0311,2.034,2.038,2.0405,2.0443,2.0512,2.0518,2.0542,2.0549,2.0555,2.0561,2.0598,2.0608,2.0498,2.0498,2.0497,0,0,2.0096,2.012,2.0145,2.0199,2.0221,2.0262,2.0234,2.0279,2.0309,2.0298,2.0354,2.0371,2.0404,2.0468,2.0497,2.0483,2.0594,2.0562,2.0566,2.0569,2.0604,2.0614,2.0624,2.0501,2.05,2.05,0,0,2.0166,2.0189,2.0238,2.0261,2.0295,2.0306,2.0318,2.035,2.036,2.0417,2.0409,2.0446,2.0514,2.0537,2.0558,2.0638,2.0629,2.065,2.0688,2.0723,2.0732,2.0739,2.0766,2.0776,2.0656,2.0657,2.0657,0,2.0195,2.0257,2.0263,2.0309,2.0332,2.0325,2.0373,2.0396,2.0441,2.0457,2.0441,2.0525,2.0547,2.0616,2.0635,2.0653,2.0666,2.0645,2.073,2.0738,2.0745,2.0771,2.0781,2.0659,2.0658,2.0658,2.0658,0,2.0291,2.0334,2.0369,2.0412,2.044,2.0487,2.0501,2.0528,2.0528,2.054,2.0598,2.0624,2.0667,2.0684,2.0684,2.0753,2.0743,2.0729,2.0699,2.0758,2.0782,2.0792,2.0662,2.0661,2.066,2.066,0,0,2.0376,2.0423,2.0436,2.0455,2.0493,2.0526,2.0573,2.0614,2.0637,2.0669,2.0707,2.0765,2.0752,2.0776,2.0779,2.0811,2.0871,2.0793,2.0794,2.0805,2.0946,2.0954,2.0966,2.0866,2.0868,2.0869,2.0942,0,2.0448,2.053,2.0538,2.0611,2.065,2.0644,2.0685,2.0712,2.0725,2.076,2.0775,2.0815,2.0796,2.081,2.0841,2.0857,2.0899,2.0852,2.09,2.0902,2.089,2.0979,2.0988,2.1055,2.0952,2.0954,2.0955,0,2.0543,2.0577,2.0654,2.0686,2.0703,2.0739,2.0777,2.0812,2.0843,2.085,2.0877,2.0876,2.0923,2.0894,2.0959,2.0927,2.0948,2.0959,2.0962,2.0964,2.093,2.0982,2.1077,2.1086,2.097,2.0969,2.0968,0,2.0595,2.0661,2.0715,2.0732,2.0771,2.0797,2.0814,2.0843,2.0867,2.0901,2.0917,2.0956,2.0977,2.1007,2.1017,2.0995,2.1081,2.1053,2.1087,2.1087,2.1104,2.1102,2.1202,2.1121,2.1121,2.1121,2.1121,0,2.0673,2.072,2.0739,2.0772,2.0824,2.0833,2.0885,2.0901,2.0927,2.0963,2.0961,2.0994,2.1006,2.1042,2.105,2.1102,2.1112,2.1118,2.1119,2.1117,2.1116,2.1129,2.1124,2.1124,2.1123,2.1122,2.1122,0,2.0739,2.0753,2.0812,2.0845,2.0854,2.0891,2.0919,2.095,2.0964,2.1009,2.102,2.1041,2.1083,2.1096,2.1147,2.1152,2.1212,2.121,2.1201,2.1201,2.1234,2.123,2.1343,2.1358,2.127,2.1271,2.1271,0,2.0786,2.0822,2.0859,2.0883,2.0901,2.094,2.0965,2.0975,2.1001,2.1039,2.1067,2.1108,2.1142,2.1209,2.1228,2.1267,2.1265,2.1302,2.127,2.1266,2.1263,2.1259,2.1262,2.1307,2.1308,2.1309,2.1309,0,2.0869,2.0875,2.091,2.0949,2.0979,2.101,2.104,2.106,2.1074,2.1103,2.1146,2.1172,2.1224,2.1265,2.1305,2.1322,2.1318,2.1319,2.1329,2.1326,2.1318,2.1321,2.1215,2.1316,2.1315,2.1315,2.1314,2.1314,2.0926,2.0957,2.0987,2.1028,2.1051,2.1079,2.111,2.1128,2.1164,2.1206,2.1211,2.1257,2.1287,2.1339,2.1359,2.1395,2.1384,2.1399,2.1402,2.1405,2.1406,2.1315,2.1403,2.1402,2.1402,2.1402,2.1402,0,2.1006,2.1026,2.1063,2.1104,2.1136,2.113,2.1163,2.1189,2.123,2.1259,2.1292,2.1341,2.1381,2.1403,2.1443,2.1467,2.1466,2.1477,2.1474,2.1478,2.1415,2.1401,2.1477,2.1477,2.1477,2.1477,2.1477,2.1477,2.1052,2.1104,2.1113,2.1177,2.1196,2.1241,2.126,2.1286,2.1309,2.1364,2.1397,2.1411,2.1438,2.1479,2.1515,2.1521,2.1535,2.1547,2.1551,2.1491,2.1483,2.1475,2.1463,2.155,2.155,2.1611,2.1611,2.1612]},{"header":{"parameterUnit":"m.s-1","parameterCategory":1,"la1":30.2991,"la2":30.254,"lo1":-89.0895,"lo2":-89.0444,"dy":0.0017,"dx":0.0017,"nx":28,"ny":28,"refTime":"2023-10-17T03:00:00:Z","depth":0,"parameterNumber":3,"parameterNumberName":"V-component_of_WINDS"},"data":[0,0,0,0,0,0,0,0,0,0,0,0,0,0,0,0,0,0,0,0,0,0,0,0,0,0,0,0,0,0,0,0,0,0,0,0,0,0,0,0,0,0,0,0,0,0,0,0,0,0,0,0,0,0,0,0,0,0,1.1227,1.1227,0,1.1175,1.1174,1.1174,1.1134,1.1134,1.1133,1.1133,1.1078,1.1077,1.1076,0,0,0,0,0,0,0,0,0,0,0,0,0,1.1289,1.1288,1.1227,1.1227,1.1226,1.1175,1.1174,1.1174,1.1134,1.1134,1.1133,1.1133,1.1079,1.1077,1.1076,0,0,0,0,0,0,0,0,0,0,0,0,0,1.1252,1.1288,1.1227,1.12,1.1197,1.1175,1.1174,1.1173,1.1134,1.1134,1.1133,1.1132,1.1079,1.1077,1.1076,1.1076,0,0,1.1071,1.107,0,0,0,0,0,0,0,0,1.1254,1.125,1.1205,1.1202,1.1199,1.116,1.1176,1.1141,1.1134,1.1158,1.1133,1.1132,1.1106,1.1102,1.1093,1.1074,1.1071,1.107,1.1069,1.1069,1.1068,0,0,0,0,0,0,0,1.1257,1.1252,1.1206,1.1204,1.12,1.1189,1.1183,1.1169,1.1136,1.1156,1.1153,1.1147,1.1104,1.1095,1.1092,1.1071,1.107,1.1069,1.1068,1.1067,1.1044,1.1045,0,0,0,0,0,0,1.1264,1.1254,1.1208,1.1205,1.1226,1.1189,1.1182,1.1173,1.1136,1.1129,1.1148,1.1146,1.1098,1.1094,1.109,1.1085,1.1069,1.1067,1.1066,1.1044,1.1044,1.1045,0,0,0,0,0,0,1.1266,1.126,1.121,1.1229,1.1222,1.1188,1.1178,1.1172,1.1163,1.113,1.1123,1.1145,1.1098,1.1092,1.1079,1.1083,1.1066,1.1065,1.1043,1.1044,1.1045,1.1078,0,0,0,0,0,0,1.1268,1.1261,1.1262,1.1229,1.1221,1.1202,1.1179,1.1172,1.1161,1.1157,1.1125,1.1119,1.1097,1.1082,1.1077,1.108,1.1064,1.1043,1.1044,1.1044,1.1077,1.108,1.1083,0,0,0,0,0,1.127,1.1274,1.1263,1.1257,1.1221,1.1202,1.1197,1.1172,1.1161,1.1161,1.1139,1.112,1.1083,1.1081,1.1075,1.1078,1.1043,1.1043,1.1044,1.1075,1.1079,1.1083,0,0,0,0,0,0,1.1309,1.127,1.1256,1.125,1.123,1.1196,1.1195,1.1177,1.1159,1.1157,1.1125,1.1118,1.1108,1.1091,1.1089,1.1074,1.106,1.106,1.1086,1.1089,1.1092,1.1096,1.1062,0,0,0,0,0,1.1317,1.1306,1.1271,1.1269,1.126,1.1229,1.122,1.1201,1.1179,1.117,1.1147,1.1125,1.1108,1.1098,1.108,1.1074,1.1065,1.1072,1.1076,1.1078,1.1078,1.107,1.1073,1.1048,1.1048,1.1048,0,0,1.1333,1.131,1.1305,1.1276,1.1259,1.1246,1.1222,1.1211,1.12,1.1168,1.1154,1.1136,1.1109,1.1098,1.1093,1.1085,1.1083,1.1079,1.1082,1.108,1.1071,1.1074,1.1076,1.1048,1.1048,1.1048,0,0,1.1356,1.1339,1.1334,1.1316,1.1288,1.1267,1.1266,1.1234,1.122,1.1206,1.118,1.1167,1.1139,1.112,1.1107,1.1119,1.11,1.1114,1.113,1.1122,1.1124,1.1126,1.1128,1.113,1.1114,1.1114,1.1114,0,1.138,1.1361,1.1333,1.1322,1.1309,1.1279,1.1272,1.1256,1.1224,1.1215,1.1206,1.1169,1.1149,1.1132,1.1134,1.1125,1.1121,1.1118,1.1127,1.1128,1.1129,1.113,1.1132,1.1116,1.1116,1.1116,1.1116,0,1.139,1.1377,1.1376,1.1345,1.1332,1.1323,1.1293,1.1282,1.1264,1.1243,1.1227,1.1201,1.1177,1.1171,1.1154,1.1151,1.1146,1.1133,1.1118,1.1133,1.1134,1.1135,1.1119,1.1118,1.1117,1.1117,0,0,1.1438,1.139,1.139,1.1375,1.1341,1.1329,1.1318,1.1294,1.1284,1.1263,1.1251,1.1227,1.1212,1.1197,1.1177,1.1171,1.1179,1.1157,1.1156,1.1161,1.117,1.118,1.1182,1.1166,1.1166,1.1166,1.1172,0,1.1454,1.1433,1.1406,1.1393,1.1379,1.1348,1.1338,1.1315,1.1295,1.1278,1.1255,1.1238,1.1222,1.1212,1.1204,1.118,1.118,1.1179,1.1153,1.1152,1.116,1.1182,1.1194,1.1201,1.1172,1.1172,1.1172,0,1.1471,1.145,1.1436,1.14,1.1393,1.1385,1.1359,1.1345,1.1317,1.1302,1.1284,1.1261,1.1245,1.1232,1.1208,1.1208,1.1195,1.1181,1.1181,1.1177,1.1163,1.1178,1.1202,1.1203,1.1173,1.1173,1.1173,0,1.1504,1.1473,1.1459,1.1447,1.1407,1.1401,1.1383,1.1355,1.1341,1.1318,1.1308,1.1284,1.127,1.125,1.1221,1.1215,1.1199,1.1184,1.1185,1.1186,1.1183,1.1184,1.1205,1.1177,1.1177,1.1177,1.1177,0,1.1525,1.1517,1.1474,1.1466,1.1454,1.1423,1.1412,1.1392,1.1366,1.1352,1.1324,1.1311,1.1274,1.1255,1.1232,1.1214,1.1209,1.1195,1.1189,1.1197,1.1199,1.1188,1.1187,1.1177,1.1177,1.1177,1.1177,0,1.1561,1.1532,1.1515,1.1477,1.1467,1.146,1.1427,1.1417,1.1394,1.1376,1.137,1.1333,1.131,1.1279,1.1246,1.123,1.1215,1.1206,1.1224,1.122,1.1222,1.1222,1.1237,1.1236,1.121,1.121,1.1211,0,1.1575,1.1568,1.1529,1.1518,1.1501,1.1483,1.1468,1.1436,1.1421,1.1388,1.1381,1.1355,1.1333,1.1297,1.1267,1.124,1.123,1.1237,1.1226,1.1233,1.1228,1.1228,1.1226,1.1239,1.124,1.124,1.1241,0,1.1603,1.1589,1.1569,1.1544,1.1527,1.1506,1.1483,1.1474,1.1437,1.1421,1.1397,1.138,1.1345,1.132,1.1289,1.1269,1.1248,1.1244,1.1242,1.1251,1.1261,1.1254,1.123,1.1244,1.1244,1.1243,1.1243,1.1243,1.1628,1.1619,1.1589,1.1568,1.1547,1.1525,1.1513,1.1488,1.1467,1.1437,1.1419,1.1395,1.1364,1.132,1.1301,1.128,1.1272,1.1271,1.127,1.127,1.1272,1.1265,1.1275,1.1275,1.1275,1.1274,1.1274,0,1.1653,1.1632,1.1612,1.1581,1.1563,1.1545,1.1517,1.1503,1.1483,1.1456,1.1434,1.1405,1.1379,1.1346,1.1317,1.1307,1.1296,1.13,1.13,1.1296,1.1282,1.1285,1.1309,1.1309,1.1309,1.1309,1.1309,1.1309,1.1664,1.1647,1.1629,1.16,1.1579,1.1556,1.1541,1.152,1.1499,1.1468,1.1446,1.1425,1.1394,1.1363,1.1337,1.1328,1.1318,1.1325,1.1312,1.13,1.1297,1.1294,1.1297,1.1323,1.1323,1.1328,1.1328,1.1328]}]]